Year,Month,Day,Hour,Minute,Value (Times are PST for temperature in C)
2010,09,23,00,00,12.20
2010,09,23,00,01,12.20
2010,09,23,00,02,12.20
2010,09,23,00,03,12.20
2010,09,23,00,04,12.10
2010,09,23,00,05,12.10
2010,09,23,00,06,12.00
2010,09,23,00,07,12.00
2010,09,23,00,08,11.90
2010,09,23,00,09,11.90
2010,09,23,00,10,11.80
2010,09,23,00,11,11.80
2010,09,23,00,12,11.80
2010,09,23,00,13,11.70
2010,09,23,00,14,11.70
2010,09,23,00,15,11.70
2010,09,23,00,16,11.60
2010,09,23,00,17,11.60
2010,09,23,00,18,11.60
2010,09,23,00,19,11.50
2010,09,23,00,20,11.50
2010,09,23,00,21,11.50
2010,09,23,00,22,11.40
2010,09,23,00,23,11.40
2010,09,23,00,24,11.40
2010,09,23,00,25,11.40
2010,09,23,00,26,11.30
2010,09,23,00,27,11.30
2010,09,23,00,28,11.30
2010,09,23,00,29,11.30
2010,09,23,00,30,11.20
2010,09,23,00,31,11.20
2010,09,23,00,32,11.20
2010,09,23,00,33,11.20
2010,09,23,00,34,11.20
2010,09,23,00,35,11.20
2010,09,23,00,36,11.30
2010,09,23,00,37,11.30
2010,09,23,00,38,11.30
2010,09,23,00,39,11.30
2010,09,23,00,40,11.30
2010,09,23,00,41,11.40
2010,09,23,00,42,11.40
2010,09,23,00,43,11.40
2010,09,23,00,44,11.50
2010,09,23,00,45,11.50
2010,09,23,00,46,11.50
2010,09,23,00,47,11.50
2010,09,23,00,48,11.50
2010,09,23,00,49,11.50
2010,09,23,00,50,11.50
2010,09,23,00,51,11.50
2010,09,23,00,52,11.50
2010,09,23,00,53,11.50
2010,09,23,00,54,11.50
2010,09,23,00,55,11.50
2010,09,23,00,56,11.50
2010,09,23,00,57,11.50
2010,09,23,00,58,11.60
2010,09,23,00,59,11.60
2010,09,23,01,00,11.60
2010,09,23,01,01,11.60
2010,09,23,01,02,11.50
2010,09,23,01,03,11.50
2010,09,23,01,04,11.50
2010,09,23,01,05,11.50
2010,09,23,01,06,11.50
2010,09,23,01,07,11.50
2010,09,23,01,08,11.40
2010,09,23,01,09,11.40
2010,09,23,01,10,11.40
2010,09,23,01,11,11.40
2010,09,23,01,12,11.40
2010,09,23,01,13,11.40
2010,09,23,01,14,11.30
2010,09,23,01,15,11.30
2010,09,23,01,16,11.30
2010,09,23,01,17,11.20
2010,09,23,01,18,11.20
2010,09,23,01,19,11.20
2010,09,23,01,20,11.20
2010,09,23,01,21,11.10
2010,09,23,01,22,11.10
2010,09,23,01,23,11.10
2010,09,23,01,24,11.10
2010,09,23,01,25,11.10
2010,09,23,01,26,11.10
2010,09,23,01,27,11.00
2010,09,23,01,28,11.00
2010,09,23,01,29,11.00
2010,09,23,01,30,11.00
2010,09,23,01,31,11.00
2010,09,23,01,32,11.00
2010,09,23,01,33,11.00
2010,09,23,01,34,11.00
2010,09,23,01,35,11.00
2010,09,23,01,36,11.00
2010,09,23,01,37,11.00
2010,09,23,01,38,11.00
2010,09,23,01,39,11.00
2010,09,23,01,40,11.00
2010,09,23,01,41,11.10
2010,09,23,01,42,11.10
2010,09,23,01,43,11.10
2010,09,23,01,44,11.10
2010,09,23,01,45,11.10
2010,09,23,01,46,11.10
2010,09,23,01,47,11.10
2010,09,23,01,48,11.10
2010,09,23,01,49,11.10
2010,09,23,01,50,11.00
2010,09,23,01,51,11.00
2010,09,23,01,52,11.10
2010,09,23,01,53,11.10
2010,09,23,01,54,11.10
2010,09,23,01,55,11.10
2010,09,23,01,56,11.10
2010,09,23,01,57,11.20
2010,09,23,01,58,11.20
2010,09,23,01,59,11.20
2010,09,23,02,00,11.30
2010,09,23,02,01,11.30
2010,09,23,02,02,11.30
2010,09,23,02,03,11.40
2010,09,23,02,04,11.40
2010,09,23,02,05,11.50
2010,09,23,02,06,11.50
2010,09,23,02,07,11.60
2010,09,23,02,08,11.60
2010,09,23,02,09,11.60
2010,09,23,02,10,11.60
2010,09,23,02,11,11.70
2010,09,23,02,12,11.70
2010,09,23,02,13,11.70
2010,09,23,02,14,11.70
2010,09,23,02,15,11.70
2010,09,23,02,16,11.70
2010,09,23,02,17,11.70
2010,09,23,02,18,11.70
2010,09,23,02,19,11.70
2010,09,23,02,20,11.70
2010,09,23,02,21,11.60
2010,09,23,02,22,11.60
2010,09,23,02,23,11.60
2010,09,23,02,24,11.60
2010,09,23,02,25,11.60
2010,09,23,02,26,11.60
2010,09,23,02,27,11.50
2010,09,23,02,28,11.50
2010,09,23,02,29,11.40
2010,09,23,02,30,11.40
2010,09,23,02,31,11.40
2010,09,23,02,32,11.40
2010,09,23,02,33,11.40
2010,09,23,02,34,11.40
2010,09,23,02,35,11.40
2010,09,23,02,36,11.40
2010,09,23,02,37,11.40
2010,09,23,02,38,11.40
2010,09,23,02,39,11.40
2010,09,23,02,40,11.40
2010,09,23,02,41,11.40
2010,09,23,02,42,11.40
2010,09,23,02,43,11.40
2010,09,23,02,44,11.40
2010,09,23,02,45,11.40
2010,09,23,02,46,11.40
2010,09,23,02,47,11.40
2010,09,23,02,48,11.40
2010,09,23,02,49,11.40
2010,09,23,02,50,11.40
2010,09,23,02,51,11.40
2010,09,23,02,52,11.30
2010,09,23,02,53,11.30
2010,09,23,02,54,11.30
2010,09,23,02,55,11.30
2010,09,23,02,56,11.30
2010,09,23,02,57,11.30
2010,09,23,02,58,11.30
2010,09,23,02,59,11.30
2010,09,23,03,00,11.30
2010,09,23,03,01,11.30
2010,09,23,03,02,11.30
2010,09,23,03,03,11.30
2010,09,23,03,04,11.30
2010,09,23,03,05,11.30
2010,09,23,03,06,11.30
2010,09,23,03,07,11.30
2010,09,23,03,08,11.30
2010,09,23,03,09,11.30
2010,09,23,03,10,11.30
2010,09,23,03,11,11.30
2010,09,23,03,12,11.30
2010,09,23,03,13,11.30
2010,09,23,03,14,11.30
2010,09,23,03,15,11.30
2010,09,23,03,16,11.30
2010,09,23,03,17,11.30
2010,09,23,03,18,11.30
2010,09,23,03,19,11.40
2010,09,23,03,20,11.40
2010,09,23,03,21,11.40
2010,09,23,03,22,11.50
2010,09,23,03,23,11.50
2010,09,23,03,24,11.50
2010,09,23,03,25,11.50
2010,09,23,03,26,11.60
2010,09,23,03,27,11.60
2010,09,23,03,28,11.60
2010,09,23,03,29,11.60
2010,09,23,03,30,11.60
2010,09,23,03,31,11.60
2010,09,23,03,32,11.60
2010,09,23,03,33,11.60
2010,09,23,03,34,11.60
2010,09,23,03,35,11.60
2010,09,23,03,36,11.60
2010,09,23,03,37,11.60
2010,09,23,03,38,11.60
2010,09,23,03,39,11.60
2010,09,23,03,40,11.60
2010,09,23,03,41,11.60
2010,09,23,03,42,11.60
2010,09,23,03,43,11.50
2010,09,23,03,44,11.50
2010,09,23,03,45,11.40
2010,09,23,03,46,11.40
2010,09,23,03,47,11.40
2010,09,23,03,48,11.40
2010,09,23,03,49,11.30
2010,09,23,03,50,11.30
2010,09,23,03,51,11.30
2010,09,23,03,52,11.30
2010,09,23,03,53,11.30
2010,09,23,03,54,11.30
2010,09,23,03,55,11.30
2010,09,23,03,56,11.30
2010,09,23,03,57,11.30
2010,09,23,03,58,11.30
2010,09,23,03,59,11.30
2010,09,23,04,00,11.30
2010,09,23,04,01,11.30
2010,09,23,04,02,11.30
2010,09,23,04,03,11.30
2010,09,23,04,04,11.30
2010,09,23,04,05,11.30
2010,09,23,04,06,11.30
2010,09,23,04,07,11.30
2010,09,23,04,08,11.30
2010,09,23,04,09,11.30
2010,09,23,04,10,11.30
2010,09,23,04,11,11.30
2010,09,23,04,12,11.30
2010,09,23,04,13,11.30
2010,09,23,04,14,11.30
2010,09,23,04,15,11.30
2010,09,23,04,16,11.30
2010,09,23,04,17,11.30
2010,09,23,04,18,11.30
2010,09,23,04,19,11.30
2010,09,23,04,20,11.30
2010,09,23,04,21,11.30
2010,09,23,04,22,11.30
2010,09,23,04,23,11.30
2010,09,23,04,24,11.30
2010,09,23,04,25,11.30
2010,09,23,04,26,11.30
2010,09,23,04,27,11.30
2010,09,23,04,28,11.30
2010,09,23,04,29,11.30
2010,09,23,04,30,11.30
2010,09,23,04,31,11.30
2010,09,23,04,32,11.30
2010,09,23,04,33,11.30
2010,09,23,04,34,11.30
2010,09,23,04,35,11.30
2010,09,23,04,36,11.30
2010,09,23,04,37,11.30
2010,09,23,04,38,11.30
2010,09,23,04,39,11.30
2010,09,23,04,40,11.30
2010,09,23,04,41,11.30
2010,09,23,04,42,11.20
2010,09,23,04,43,11.20
2010,09,23,04,44,11.20
2010,09,23,04,45,11.20
2010,09,23,04,46,11.20
2010,09,23,04,47,11.20
2010,09,23,04,48,11.20
2010,09,23,04,49,11.20
2010,09,23,04,50,11.20
2010,09,23,04,51,11.20
2010,09,23,04,52,11.20
2010,09,23,04,53,11.20
2010,09,23,04,54,11.20
2010,09,23,04,55,11.20
2010,09,23,04,56,11.20
2010,09,23,04,57,11.20
2010,09,23,04,58,11.20
2010,09,23,04,59,11.30
2010,09,23,05,00,11.30
2010,09,23,05,01,11.40
2010,09,23,05,02,11.40
2010,09,23,05,03,11.50
2010,09,23,05,04,11.60
2010,09,23,05,05,11.60
2010,09,23,05,06,11.60
2010,09,23,05,07,11.60
2010,09,23,05,08,11.70
2010,09,23,05,09,11.70
2010,09,23,05,10,11.80
2010,09,23,05,11,11.80
2010,09,23,05,12,11.90
2010,09,23,05,13,11.90
2010,09,23,05,14,11.90
2010,09,23,05,15,12.00
2010,09,23,05,16,12.10
2010,09,23,05,17,12.10
2010,09,23,05,18,12.10
2010,09,23,05,19,12.10
2010,09,23,05,20,12.10
2010,09,23,05,21,12.10
2010,09,23,05,22,12.10
2010,09,23,05,23,12.10
2010,09,23,05,24,12.10
2010,09,23,05,25,12.10
2010,09,23,05,26,12.10
2010,09,23,05,27,12.20
2010,09,23,05,28,12.20
2010,09,23,05,29,12.20
2010,09,23,05,30,12.30
2010,09,23,05,31,12.30
2010,09,23,05,32,12.30
2010,09,23,05,33,12.30
2010,09,23,05,34,12.30
2010,09,23,05,35,12.40
2010,09,23,05,36,12.40
2010,09,23,05,37,12.40
2010,09,23,05,38,12.40
2010,09,23,05,39,12.40
2010,09,23,05,40,12.40
2010,09,23,05,41,12.50
2010,09,23,05,42,12.50
2010,09,23,05,43,12.50
2010,09,23,05,44,12.50
2010,09,23,05,45,12.50
2010,09,23,05,46,12.50
2010,09,23,05,47,12.50
2010,09,23,05,48,12.50
2010,09,23,05,49,12.50
2010,09,23,05,50,12.50
2010,09,23,05,51,12.50
2010,09,23,05,52,12.50
2010,09,23,05,53,12.50
2010,09,23,05,54,12.50
2010,09,23,05,55,12.50
2010,09,23,05,56,12.50
2010,09,23,05,57,12.50
2010,09,23,05,58,12.50
2010,09,23,05,59,12.50
2010,09,23,06,00,12.50
2010,09,23,06,01,12.50
2010,09,23,06,02,12.50
2010,09,23,06,03,12.50
2010,09,23,06,04,12.50
2010,09,23,06,05,12.50
2010,09,23,06,06,12.50
2010,09,23,06,07,12.50
2010,09,23,06,08,12.50
2010,09,23,06,09,12.50
2010,09,23,06,10,12.50
2010,09,23,06,11,12.50
2010,09,23,06,12,12.50
2010,09,23,06,13,12.50
2010,09,23,06,14,12.50
2010,09,23,06,15,12.50
2010,09,23,06,16,12.50
2010,09,23,06,17,12.50
2010,09,23,06,18,12.50
2010,09,23,06,19,12.60
2010,09,23,06,20,12.60
2010,09,23,06,21,12.60
2010,09,23,06,22,12.60
2010,09,23,06,23,12.60
2010,09,23,06,24,12.60
2010,09,23,06,25,12.60
2010,09,23,06,26,12.60
2010,09,23,06,27,12.60
2010,09,23,06,28,12.60
2010,09,23,06,29,12.60
2010,09,23,06,30,12.60
2010,09,23,06,31,12.60
2010,09,23,06,32,12.60
2010,09,23,06,33,12.60
2010,09,23,06,34,12.60
2010,09,23,06,35,12.60
2010,09,23,06,36,12.60
2010,09,23,06,37,12.60
2010,09,23,06,38,12.70
2010,09,23,06,39,12.70
2010,09,23,06,40,12.70
2010,09,23,06,41,12.70
2010,09,23,06,42,12.70
2010,09,23,06,43,12.70
2010,09,23,06,44,12.70
2010,09,23,06,45,12.70
2010,09,23,06,46,12.70
2010,09,23,06,47,12.60
2010,09,23,06,48,12.60
2010,09,23,06,49,12.60
2010,09,23,06,50,12.60
2010,09,23,06,51,12.60
2010,09,23,06,52,12.50
2010,09,23,06,53,12.50
2010,09,23,06,54,12.40
2010,09,23,06,55,12.40
2010,09,23,06,56,12.30
2010,09,23,06,57,12.30
2010,09,23,06,58,12.30
2010,09,23,06,59,12.20
2010,09,23,07,00,12.20
2010,09,23,07,01,12.10
2010,09,23,07,02,12.10
2010,09,23,07,03,12.00
2010,09,23,07,04,11.90
2010,09,23,07,05,11.90
2010,09,23,07,06,11.90
2010,09,23,07,07,11.80
2010,09,23,07,08,11.80
2010,09,23,07,09,11.80
2010,09,23,07,10,11.70
2010,09,23,07,11,11.70
2010,09,23,07,12,11.70
2010,09,23,07,13,11.70
2010,09,23,07,14,11.70
2010,09,23,07,15,11.60
2010,09,23,07,16,11.60
2010,09,23,07,17,11.60
2010,09,23,07,18,11.60
2010,09,23,07,19,11.60
2010,09,23,07,20,11.60
2010,09,23,07,21,11.60
2010,09,23,07,22,11.60
2010,09,23,07,23,11.60
2010,09,23,07,24,11.60
2010,09,23,07,25,11.50
2010,09,23,07,26,11.50
2010,09,23,07,27,11.50
2010,09,23,07,28,11.50
2010,09,23,07,29,11.50
2010,09,23,07,30,11.50
2010,09,23,07,31,11.50
2010,09,23,07,32,11.50
2010,09,23,07,33,11.50
2010,09,23,07,34,11.50
2010,09,23,07,35,11.50
2010,09,23,07,36,11.50
2010,09,23,07,37,11.50
2010,09,23,07,38,11.50
2010,09,23,07,39,11.50
2010,09,23,07,40,11.50
2010,09,23,07,41,11.50
2010,09,23,07,42,11.50
2010,09,23,07,43,11.50
2010,09,23,07,44,11.50
2010,09,23,07,45,11.50
2010,09,23,07,46,11.50
2010,09,23,07,47,11.50
2010,09,23,07,48,11.50
2010,09,23,07,49,11.50
2010,09,23,07,50,11.50
2010,09,23,07,51,11.50
2010,09,23,07,52,11.50
2010,09,23,07,53,11.50
2010,09,23,07,54,11.50
2010,09,23,07,55,11.50
2010,09,23,07,56,11.50
2010,09,23,07,57,11.50
2010,09,23,07,58,11.50
2010,09,23,07,59,11.50
2010,09,23,08,00,11.60
2010,09,23,08,01,11.60
2010,09,23,08,02,11.60
2010,09,23,08,03,11.60
2010,09,23,08,04,11.60
2010,09,23,08,05,11.60
2010,09,23,08,06,11.60
2010,09,23,08,07,11.70
2010,09,23,08,08,11.70
2010,09,23,08,09,11.70
2010,09,23,08,10,11.80
2010,09,23,08,11,11.80
2010,09,23,08,12,11.80
2010,09,23,08,13,11.90
2010,09,23,08,14,11.90
2010,09,23,08,15,12.00
2010,09,23,08,16,12.00
2010,09,23,08,17,12.00
2010,09,23,08,18,12.10
2010,09,23,08,19,12.10
2010,09,23,08,20,12.10
2010,09,23,08,21,12.20
2010,09,23,08,22,12.20
2010,09,23,08,23,12.20
2010,09,23,08,24,12.20
2010,09,23,08,25,12.20
2010,09,23,08,26,12.20
2010,09,23,08,27,12.20
2010,09,23,08,28,12.30
2010,09,23,08,29,12.30
2010,09,23,08,30,12.30
2010,09,23,08,31,12.30
2010,09,23,08,32,12.40
2010,09,23,08,33,12.40
2010,09,23,08,34,12.40
2010,09,23,08,35,12.40
2010,09,23,08,36,12.40
2010,09,23,08,37,12.50
2010,09,23,08,38,12.50
2010,09,23,08,39,12.60
2010,09,23,08,40,12.60
2010,09,23,08,41,12.60
2010,09,23,08,42,12.60
2010,09,23,08,43,12.60
2010,09,23,08,44,12.60
2010,09,23,08,45,12.70
2010,09,23,08,46,12.70
2010,09,23,08,47,12.70
2010,09,23,08,48,12.70
2010,09,23,08,49,12.70
2010,09,23,08,50,12.80
2010,09,23,08,51,12.80
2010,09,23,08,52,12.80
2010,09,23,08,53,12.80
2010,09,23,08,54,12.90
2010,09,23,08,55,12.90
2010,09,23,08,56,13.00
2010,09,23,08,57,13.00
2010,09,23,08,58,13.10
2010,09,23,08,59,13.10
2010,09,23,09,00,13.10
2010,09,23,09,01,13.10
2010,09,23,09,02,13.10
2010,09,23,09,03,13.10
2010,09,23,09,04,13.10
2010,09,23,09,05,13.10
2010,09,23,09,06,13.10
2010,09,23,09,07,13.10
2010,09,23,09,08,13.10
2010,09,23,09,09,13.10
2010,09,23,09,10,13.00
2010,09,23,09,11,13.10
2010,09,23,09,12,13.00
2010,09,23,09,13,13.00
2010,09,23,09,14,13.10
2010,09,23,09,15,13.00
2010,09,23,09,16,13.10
2010,09,23,09,17,13.10
2010,09,23,09,18,13.10
2010,09,23,09,19,13.00
2010,09,23,09,20,13.10
2010,09,23,09,21,13.10
2010,09,23,09,22,13.10
2010,09,23,09,23,13.10
2010,09,23,09,24,13.10
2010,09,23,09,25,13.10
2010,09,23,09,26,13.20
2010,09,23,09,27,13.20
2010,09,23,09,28,13.20
2010,09,23,09,29,13.20
2010,09,23,09,30,13.20
2010,09,23,09,31,13.20
2010,09,23,09,32,13.20
2010,09,23,09,33,13.20
2010,09,23,09,34,13.20
2010,09,23,09,35,13.20
2010,09,23,09,36,13.10
2010,09,23,09,37,13.10
2010,09,23,09,38,13.10
2010,09,23,09,39,13.10
2010,09,23,09,40,13.10
2010,09,23,09,41,13.10
2010,09,23,09,42,13.00
2010,09,23,09,43,13.00
2010,09,23,09,44,13.00
2010,09,23,09,45,13.00
2010,09,23,09,46,12.90
2010,09,23,09,47,12.90
2010,09,23,09,48,12.90
2010,09,23,09,49,13.00
2010,09,23,09,50,13.00
2010,09,23,09,51,13.00
2010,09,23,09,52,13.00
2010,09,23,09,53,13.00
2010,09,23,09,54,13.00
2010,09,23,09,55,13.00
2010,09,23,09,56,12.90
2010,09,23,09,57,12.90
2010,09,23,09,58,12.90
2010,09,23,09,59,12.90
2010,09,23,10,00,12.80
2010,09,23,10,01,12.80
2010,09,23,10,02,12.80
2010,09,23,10,03,12.80
2010,09,23,10,04,12.70
2010,09,23,10,05,12.70
2010,09,23,10,06,12.70
2010,09,23,10,07,12.70
2010,09,23,10,08,12.70
2010,09,23,10,09,12.70
2010,09,23,10,10,12.70
2010,09,23,10,11,12.70
2010,09,23,10,12,12.70
2010,09,23,10,13,12.70
2010,09,23,10,14,12.60
2010,09,23,10,15,12.70
2010,09,23,10,16,12.60
2010,09,23,10,17,12.60
2010,09,23,10,18,12.60
2010,09,23,10,19,12.70
2010,09,23,10,20,12.70
2010,09,23,10,21,12.70
2010,09,23,10,22,12.70
2010,09,23,10,23,12.70
2010,09,23,10,24,12.70
2010,09,23,10,25,12.70
2010,09,23,10,26,12.70
2010,09,23,10,27,12.70
2010,09,23,10,28,12.70
2010,09,23,10,29,12.70
2010,09,23,10,30,12.70
2010,09,23,10,31,12.70
2010,09,23,10,32,12.70
2010,09,23,10,33,12.70
2010,09,23,10,34,12.70
2010,09,23,10,35,12.70
2010,09,23,10,36,12.70
2010,09,23,10,37,12.80
2010,09,23,10,38,12.80
2010,09,23,10,39,12.80
2010,09,23,10,40,12.80
2010,09,23,10,41,12.80
2010,09,23,10,42,12.80
2010,09,23,10,43,12.80
2010,09,23,10,44,12.80
2010,09,23,10,45,12.90
2010,09,23,10,46,12.90
2010,09,23,10,47,12.90
2010,09,23,10,48,12.90
2010,09,23,10,49,12.90
2010,09,23,10,50,13.00
2010,09,23,10,51,13.00
2010,09,23,10,52,13.00
2010,09,23,10,53,13.10
2010,09,23,10,54,13.10
2010,09,23,10,55,13.10
2010,09,23,10,56,13.10
2010,09,23,10,57,13.20
2010,09,23,10,58,13.20
2010,09,23,10,59,13.20
2010,09,23,11,00,13.10
2010,09,23,11,01,13.10
2010,09,23,11,02,13.10
2010,09,23,11,03,13.10
2010,09,23,11,04,13.00
2010,09,23,11,05,13.00
2010,09,23,11,06,13.00
2010,09,23,11,07,12.90
2010,09,23,11,08,12.90
2010,09,23,11,09,12.90
2010,09,23,11,10,12.90
2010,09,23,11,11,12.90
2010,09,23,11,12,12.90
2010,09,23,11,13,12.90
2010,09,23,11,14,12.90
2010,09,23,11,15,12.90
2010,09,23,11,16,12.90
2010,09,23,11,17,12.90
2010,09,23,11,18,12.90
2010,09,23,11,19,12.90
2010,09,23,11,20,12.90
2010,09,23,11,21,12.90
2010,09,23,11,22,12.90
2010,09,23,11,23,12.90
2010,09,23,11,24,12.80
2010,09,23,11,25,12.80
2010,09,23,11,26,12.80
2010,09,23,11,27,12.80
2010,09,23,11,28,12.80
2010,09,23,11,29,12.70
2010,09,23,11,30,12.70
2010,09,23,11,31,12.60
2010,09,23,11,32,12.50
2010,09,23,11,33,12.40
2010,09,23,11,34,12.30
2010,09,23,11,35,12.30
2010,09,23,11,36,12.20
2010,09,23,11,37,12.20
2010,09,23,11,38,12.10
2010,09,23,11,39,12.10
2010,09,23,11,40,12.00
2010,09,23,11,41,12.00
2010,09,23,11,42,11.90
2010,09,23,11,43,11.90
2010,09,23,11,44,11.90
2010,09,23,11,45,11.90
2010,09,23,11,46,11.90
2010,09,23,11,47,11.80
2010,09,23,11,48,11.80
2010,09,23,11,49,11.80
2010,09,23,11,50,11.80
2010,09,23,11,51,11.80
2010,09,23,11,52,11.80
2010,09,23,11,53,11.80
2010,09,23,11,54,11.80
2010,09,23,11,55,11.80
2010,09,23,11,56,11.80
2010,09,23,11,57,11.80
2010,09,23,11,58,11.80
2010,09,23,11,59,11.80
2010,09,23,12,00,11.80
2010,09,23,12,01,11.80
2010,09,23,12,02,11.80
2010,09,23,12,03,11.80
2010,09,23,12,04,11.80
2010,09,23,12,05,11.70
2010,09,23,12,06,11.70
2010,09,23,12,07,11.70
2010,09,23,12,08,11.70
2010,09,23,12,09,11.70
2010,09,23,12,10,11.70
2010,09,23,12,11,11.70
2010,09,23,12,12,11.80
2010,09,23,12,13,11.70
2010,09,23,12,14,11.80
2010,09,23,12,15,11.80
2010,09,23,12,16,11.80
2010,09,23,12,17,11.80
2010,09,23,12,18,11.80
2010,09,23,12,19,11.80
2010,09,23,12,20,11.80
2010,09,23,12,21,11.80
2010,09,23,12,22,11.80
2010,09,23,12,23,11.80
2010,09,23,12,24,11.80
2010,09,23,12,25,11.80
2010,09,23,12,26,11.80
2010,09,23,12,27,11.80
2010,09,23,12,28,11.80
2010,09,23,12,29,11.80
2010,09,23,12,30,11.80
2010,09,23,12,31,11.80
2010,09,23,12,32,11.80
2010,09,23,12,33,11.80
2010,09,23,12,34,11.80
2010,09,23,12,35,11.80
2010,09,23,12,36,11.80
2010,09,23,12,37,11.80
2010,09,23,12,38,11.80
2010,09,23,12,39,11.80
2010,09,23,12,40,11.80
2010,09,23,12,41,11.80
2010,09,23,12,42,11.80
2010,09,23,12,43,11.80
2010,09,23,12,44,11.80
2010,09,23,12,45,11.80
2010,09,23,12,46,11.80
2010,09,23,12,47,11.80
2010,09,23,12,48,11.80
2010,09,23,12,49,11.80
2010,09,23,12,50,11.80
2010,09,23,12,51,11.80
2010,09,23,12,52,11.80
2010,09,23,12,53,11.80
2010,09,23,12,54,11.80
2010,09,23,12,55,11.80
2010,09,23,12,56,11.80
2010,09,23,12,57,11.80
2010,09,23,12,58,11.80
2010,09,23,12,59,11.80
2010,09,23,13,00,11.80
2010,09,23,13,01,11.80
2010,09,23,13,02,11.80
2010,09,23,13,03,11.80
2010,09,23,13,04,11.80
2010,09,23,13,05,11.80
2010,09,23,13,06,11.80
2010,09,23,13,07,11.80
2010,09,23,13,08,11.80
2010,09,23,13,09,11.80
2010,09,23,13,10,11.80
2010,09,23,13,11,11.90
2010,09,23,13,12,11.90
2010,09,23,13,13,11.90
2010,09,23,13,14,11.90
2010,09,23,13,15,11.80
2010,09,23,13,16,11.90
2010,09,23,13,17,11.90
2010,09,23,13,18,11.90
2010,09,23,13,19,11.90
2010,09,23,13,20,11.90
2010,09,23,13,21,11.90
2010,09,23,13,22,11.90
2010,09,23,13,23,11.90
2010,09,23,13,24,12.00
2010,09,23,13,25,12.00
2010,09,23,13,26,12.00
2010,09,23,13,27,12.10
2010,09,23,13,28,12.10
2010,09,23,13,29,12.20
2010,09,23,13,30,12.20
2010,09,23,13,31,12.20
2010,09,23,13,32,12.20
2010,09,23,13,33,12.30
2010,09,23,13,34,12.30
2010,09,23,13,35,12.30
2010,09,23,13,36,12.30
2010,09,23,13,37,12.30
2010,09,23,13,38,12.40
2010,09,23,13,39,12.40
2010,09,23,13,40,12.40
2010,09,23,13,41,12.40
2010,09,23,13,42,12.40
2010,09,23,13,43,12.40
2010,09,23,13,44,12.40
2010,09,23,13,45,12.40
2010,09,23,13,46,12.50
2010,09,23,13,47,12.50
2010,09,23,13,48,12.60
2010,09,23,13,49,12.60
2010,09,23,13,50,12.60
2010,09,23,13,51,12.60
2010,09,23,13,52,12.60
2010,09,23,13,53,12.60
2010,09,23,13,54,12.60
2010,09,23,13,55,12.60
2010,09,23,13,56,12.60
2010,09,23,13,57,12.60
2010,09,23,13,58,12.60
2010,09,23,13,59,12.70
2010,09,23,14,00,12.70
2010,09,23,14,01,12.70
2010,09,23,14,02,12.70
2010,09,23,14,03,12.70
2010,09,23,14,04,12.70
2010,09,23,14,05,12.60
2010,09,23,14,06,12.60
2010,09,23,14,07,12.60
2010,09,23,14,08,12.70
2010,09,23,14,09,12.70
2010,09,23,14,10,12.60
2010,09,23,14,11,12.60
2010,09,23,14,12,12.60
2010,09,23,14,13,12.60
2010,09,23,14,14,12.60
2010,09,23,14,15,12.60
2010,09,23,14,16,12.60
2010,09,23,14,17,12.60
2010,09,23,14,18,12.70
2010,09,23,14,19,12.70
2010,09,23,14,20,12.70
2010,09,23,14,21,12.70
2010,09,23,14,22,12.70
2010,09,23,14,23,12.70
2010,09,23,14,24,12.70
2010,09,23,14,25,12.70
2010,09,23,14,26,12.70
2010,09,23,14,27,12.70
2010,09,23,14,28,12.70
2010,09,23,14,29,12.70
2010,09,23,14,30,12.70
2010,09,23,14,31,12.70
2010,09,23,14,32,12.70
2010,09,23,14,33,12.70
2010,09,23,14,34,12.70
2010,09,23,14,35,12.70
2010,09,23,14,36,12.70
2010,09,23,14,37,12.70
2010,09,23,14,38,12.70
2010,09,23,14,39,12.70
2010,09,23,14,40,12.70
2010,09,23,14,41,12.70
2010,09,23,14,42,12.70
2010,09,23,14,43,12.70
2010,09,23,14,44,12.70
2010,09,23,14,45,12.70
2010,09,23,14,46,12.60
2010,09,23,14,47,12.60
2010,09,23,14,48,12.60
2010,09,23,14,49,12.60
2010,09,23,14,50,12.60
2010,09,23,14,51,12.60
2010,09,23,14,52,12.60
2010,09,23,14,53,12.60
2010,09,23,14,54,12.60
2010,09,23,14,55,12.60
2010,09,23,14,56,12.60
2010,09,23,14,57,12.60
2010,09,23,14,58,12.60
2010,09,23,14,59,12.60
2010,09,23,15,00,12.60
2010,09,23,15,01,12.60
2010,09,23,15,02,12.60
2010,09,23,15,03,12.60
2010,09,23,15,04,12.60
2010,09,23,15,05,12.60
2010,09,23,15,06,12.60
2010,09,23,15,07,12.60
2010,09,23,15,08,12.60
2010,09,23,15,09,12.60
2010,09,23,15,10,12.60
2010,09,23,15,11,12.60
2010,09,23,15,12,12.60
2010,09,23,15,13,12.70
2010,09,23,15,14,12.70
2010,09,23,15,15,12.70
2010,09,23,15,16,12.70
2010,09,23,15,17,12.70
2010,09,23,15,18,12.70
2010,09,23,15,19,12.70
2010,09,23,15,20,12.70
2010,09,23,15,21,12.70
2010,09,23,15,22,12.70
2010,09,23,15,23,12.70
2010,09,23,15,24,12.70
2010,09,23,15,25,12.70
2010,09,23,15,26,12.70
2010,09,23,15,27,12.70
2010,09,23,15,28,12.70
2010,09,23,15,29,12.70
2010,09,23,15,30,12.70
2010,09,23,15,31,12.80
2010,09,23,15,32,12.80
2010,09,23,15,33,12.80
2010,09,23,15,34,12.80
2010,09,23,15,35,12.80
2010,09,23,15,36,12.80
2010,09,23,15,37,12.80
2010,09,23,15,38,12.80
2010,09,23,15,39,12.80
2010,09,23,15,40,12.80
2010,09,23,15,41,12.80
2010,09,23,15,42,12.80
2010,09,23,15,43,12.80
2010,09,23,15,44,12.80
2010,09,23,15,45,12.80
2010,09,23,15,46,12.70
2010,09,23,15,47,12.70
2010,09,23,15,48,12.70
2010,09,23,15,49,12.70
2010,09,23,15,50,12.70
2010,09,23,15,51,12.70
2010,09,23,15,52,12.70
2010,09,23,15,53,12.70
2010,09,23,15,54,12.70
2010,09,23,15,55,12.70
2010,09,23,15,56,12.70
2010,09,23,15,57,12.70
2010,09,23,15,58,12.70
2010,09,23,15,59,12.70
2010,09,23,16,00,12.70
2010,09,23,16,01,12.70
2010,09,23,16,02,12.70
2010,09,23,16,03,12.70
2010,09,23,16,04,12.70
2010,09,23,16,05,12.70
2010,09,23,16,06,12.70
2010,09,23,16,07,12.70
2010,09,23,16,08,12.60
2010,09,23,16,09,12.60
2010,09,23,16,10,12.60
2010,09,23,16,11,12.60
2010,09,23,16,12,12.60
2010,09,23,16,13,12.60
2010,09,23,16,14,12.60
2010,09,23,16,15,12.60
2010,09,23,16,16,12.60
2010,09,23,16,17,12.60
2010,09,23,16,18,12.60
2010,09,23,16,19,12.60
2010,09,23,16,20,12.60
2010,09,23,16,21,12.50
2010,09,23,16,22,12.50
2010,09,23,16,23,12.50
2010,09,23,16,24,12.50
2010,09,23,16,25,12.50
2010,09,23,16,26,12.50
2010,09,23,16,27,12.40
2010,09,23,16,28,12.40
2010,09,23,16,29,12.40
2010,09,23,16,30,12.40
2010,09,23,16,31,12.40
2010,09,23,16,32,12.40
2010,09,23,16,33,12.30
2010,09,23,16,34,12.30
2010,09,23,16,35,12.30
2010,09,23,16,36,12.30
2010,09,23,16,37,12.30
2010,09,23,16,38,12.30
2010,09,23,16,39,12.30
2010,09,23,16,40,12.30
2010,09,23,16,41,12.30
2010,09,23,16,42,12.30
2010,09,23,16,43,12.30
2010,09,23,16,44,12.20
2010,09,23,16,45,12.20
2010,09,23,16,46,12.20
2010,09,23,16,47,12.20
2010,09,23,16,48,12.20
2010,09,23,16,49,12.20
2010,09,23,16,50,12.20
2010,09,23,16,51,12.20
2010,09,23,16,52,12.20
2010,09,23,16,53,12.20
2010,09,23,16,54,12.10
2010,09,23,16,55,12.10
2010,09,23,16,56,12.10
2010,09,23,16,57,12.10
2010,09,23,16,58,12.10
2010,09,23,16,59,12.10
2010,09,23,17,00,12.10
2010,09,23,17,01,12.10
2010,09,23,17,02,12.10
2010,09,23,17,03,12.10
2010,09,23,17,04,12.10
2010,09,23,17,05,12.10
2010,09,23,17,06,12.10
2010,09,23,17,07,12.10
2010,09,23,17,08,12.10
2010,09,23,17,09,12.10
2010,09,23,17,10,12.10
2010,09,23,17,11,12.10
2010,09,23,17,12,12.10
2010,09,23,17,13,12.10
2010,09,23,17,14,12.10
2010,09,23,17,15,12.10
2010,09,23,17,16,12.10
2010,09,23,17,17,12.10
2010,09,23,17,18,12.10
2010,09,23,17,19,12.10